Hourly Data Report for October 09, 2014

All times are specified in Local Standard Time (LST). Add 1 hour to adjust for Daylight Saving Time where and when it is observed.

POND INLET A
NUNAVUT

72°41'22.000" N
77°58'08.000" W
61.60 m
2403206
71095
YIO

Download Data

Hourly Data (October 2014)
Hourly Data Report for October 9, 2014
Temp Definition
°C
Dew Point Temp Definition
°C
Rel Hum Definition
%
Wind Dir Definition
10's deg

Wind Spd Definition
km/h
Visibility Definition
km
Stn Press Definition
kPa
Hmdx Definition


Wind Chill Definition


Weather Definition


TIME
00:00 Legend Double Dagger -6.2 -7.9 88 15 17 16.1 101.61   -12 LegendNANA
01:00 Legend Double Dagger -6.6 -8.4 87 15 17 16.1 101.58   -13 LegendNANA
02:00 Legend Double Dagger -7.0 -8.8 87 15 18 16.1 101.55   -14 LegendNANA
03:00 Legend Double Dagger -7.0 -8.9 87 16 18 16.1 101.56   -14 LegendNANA
04:00 Legend Double Dagger -7.6 -9.7 85 15 21 16.1 101.54   -15 LegendNANA
05:00 Legend Double Dagger -10.3 -12.2 86 15 22 16.1 101.51   -19 LegendNANA
06:00 Legend Double Dagger -10.8 -12.5 87 14 22 16.1 101.54   -19 LegendNANA
07:00 Legend Double Dagger -9.9 -12.0 85 14 24 16.1 101.53   -18 LegendNANA
08:00 Legend Double Dagger -11.4 -13.3 86 14 21 16.1 101.52   -20 LegendNANA
09:00 Legend Double Dagger -10.3 -12.4 85 16 18 16.1 101.51   -18 LegendNANA
10:00 Legend Double Dagger -9.8 -11.4 88 15 15 16.1 101.50   -16 LegendNANA
11:00 Legend Double Dagger -10.2 -11.7 89 15 13 16.1 101.51   -16 LegendNANA
12:00 Legend Double Dagger -10.5 -12.2 87 14 9 16.1 101.53   -15 LegendNANA
13:00 Legend Double Dagger -9.4 -11.3 87 12 4 16.1 101.52   -12 LegendNANA
14:00 Legend Double Dagger -9.6 -11.0 90 14 11 16.1 101.53   -15 LegendNANA
15:00 Legend Double Dagger -9.4 -11.0 88 15 11 16.1 101.52   -15 LegendNANA
16:00 Legend Double Dagger -11.4 -13.8 83 14 18 16.1 101.52   -19 LegendNANA
17:00 Legend Double Dagger -12.4 -14.2 87 14 21 16.1 101.52   -21 LegendNANA
18:00 Legend Double Dagger -10.8 -12.9 84 15 5 16.1 101.52   -14 LegendNANA
19:00 Legend Double Dagger -11.4 -12.8 89 14 11 16.1 101.49   -17 LegendNANA
20:00 Legend Double Dagger -9.3 -11.7 83 15 15 16.1 101.47   -16 LegendNANA
21:00 Legend Double Dagger -11.0 -13.2 84 15 13 16.1 101.43   -17 LegendNANA
22:00 Legend Double Dagger -11.1 -12.7 88 15 13 16.1 101.40   -18 LegendNANA
23:00 Legend Double Dagger -9.3 -11.5 84 14 13 16.1 101.38   -15 LegendNANA

Notes on Data Quality.

Legend

  • E = Estimated
  • M = Missing
  • NA = Not Available
  • ‡ = Partner data that is not subject to review by the National Climate Archives
Date modified: